Flag for Germany Weather past 2 weeks in Burg, Saxony-Anhalt, Germany

Now
77 °F

Passing clouds.


Feels Like: 78 °F
Forecast: 60 / 93 °F
Wind: 2 mph from West

Location: Magdeburg

Current Time: Aug 5, 2015 at 3:31:32 PM

Latest Report: Aug 5, 2015 at 3:00 PM


Visibility: 31 mi

Pressure: 30.09 "Hg

Humidity: 35%

Dew point: 48 °F

Location of BurgLocation

Historic Weather in Burg — Graph

°F

Burg temperature yesterday

Maximum temperature yesterday: 93 °F (at 4:00 PM)
Minimum temperature yesterday: 65 °F (at 4:00 AM)
Average temperature yesterday: 78 °F

Past Weeks' High & Low Weather Summary

 TemperatureHumidityPressure
High93 °F (Aug 4, 4:00 PM)96% (Jul 25, 6:00 AM)30.14 "Hg (Jul 25, 6:00 AM)
Low47 °F (Aug 1, 3:00 AM)26% (Aug 4, 4:00 PM)29.54 "Hg (Jul 25, 2:00 PM)
Average67 °F63%29.89 "Hg
* Reported Jul 21 2:00 PM — Aug 5 2:00 PM, Burg, Weather by CustomWeather, © 2015

Note: Actual official high and low records may vary slightly from our data, if they occured in-between our weather recording intervals... More about our weather records

Advertising

Burg weather history for previous 24 hours

 ConditionsComfort  
Time TempWeatherWind HumidityBarometerVisibility
2:00 PM
Wed, Aug 5
75 °FPassing clouds.3 mph35%30.11 "Hg31 mi
1:00 PM73 °FScattered clouds.2 mph38%30.11 "Hg31 mi
12:00 PM71 °FScattered clouds.3 mph51%30.13 "Hg22 mi
10:00 AM67 °FScattered clouds.2 mph60%30.14 "Hg19 mi
9:00 AM65 °FScattered clouds.2 mph73%30.13 "Hg12 mi
8:00 AM63 °FPassing clouds.1 mph84%30.12 "Hg10 mi
7:00 AM59 °FPassing clouds.1 mph91%30.11 "Hg11 mi
6:00 AM60 °FScattered clouds.2 mph90%30.10 "Hg11 mi
4:00 AM61 °FPassing clouds.2 mph91%30.08 "Hg11 mi
3:00 AM61 °FOvercast.2 mph87%30.07 "Hg19 mi
2:00 AM63 °FOvercast.3 mph89%30.06 "Hg15 mi
1:00 AM65 °FLow clouds.3 mph93%30.03 "Hg5 mi
12:00 AM67 °FOvercast.1 mph90%30.01 "Hg8 mi
10:00 PM
Tue, Aug 4
67 °FOvercast.1 mph91%29.98 "Hg7 mi
9:00 PM69 °FLight rain. Overcast.2 mph89%29.95 "Hg3 mi
8:00 PM71 °FLight rain. Overcast.5 mph82%29.90 "Hg3 mi
7:00 PM77 °FOvercast.6 mph57%29.88 "Hg10 mi
6:00 PM84 °FPartly sunny.7 mph41%29.84 "Hg11 mi
5:00 PM92 °FOvercast.5 mph26%29.80 "Hg31 mi
4:00 PM93 °FPartly sunny.3 mph26%29.81 "Hg31 mi
3:00 PM92 °FPartly sunny.3 mph29%29.82 "Hg31 mi
Weather by CustomWeather, © 2015

See weather overviewHow to use our weather pages